Regional Weather Roundup
Issued by NWS Wakefield, VA

Home | Current Version | Previous Version | Graphics & Text | Print | Product List | Glossary On
Versions: 1 2 3 4 5 6 7 8 9 10 11 12 13 14 15 16 17 18 19 20 21 22 23 24 25 26 27 28 29 30 31 32 33 34 35 36 37 38 39 40 41 42 43 44 45 46 47 48 49 50
000
ASUS41 KAKQ 262014
RWRAKQ

REGIONAL WEATHER ROUNDUP
NATIONAL WEATHER SERVICE WAKEFIELD VA
400 PM EDT SUN APR 26 2015

Note: "fair" indicates few or no clouds below 12,000 feet with no
significant weather and/or obstructions to visibility. * = Denotes
station may not report precipitation (e.g., rain,snow,etc.),
thunder or fog.

VAZ042-051-052>054-056-262100-
NORTHERN VIRGINIA

CITY           SKY/WX    TMP DP  RH WIND       PRES   REMARKS
WASH NATIONAL  MOSUNNY   65  34  31 NE7       29.68F
DULLES         MOSUNNY   61  31  32 W3        29.69F
FORT BELVOIR   MOSUNNY   62  31  30 VRB3      29.68F
QUANTICO       MOSUNNY   62  36  37 S5        29.70F
FREDERICKSBRG* SUNNY     63  34  34 CALM      29.69S
STAFFORD*      MOSUNNY   59  29  31 CALM      29.73F
WARRENTON      PTSUNNY   62  38  40 NE3       29.69F
CULPEPER*      MOSUNNY   63  36  36 NE6       29.70F
MANASSAS*      NOT AVBL
LEESBURG*      SUNNY     63  34  34 N12G17    29.70F
WINCHESTER     MOSUNNY   63  23  22 NW7       29.69F
FRONT ROYAL*   FAIR      59  34  38 N5        29.69F
LURAY*         MOCLDY    61  36  39 CALM      29.70F
$$

VAZ048-049-060>072-079>083-262100-
CENTRAL AND SOUTH CENTRAL VIRGINIA

CITY           SKY/WX    TMP DP  RH WIND       PRES   REMARKS
RICHMOND       MOSUNNY   62  39  42 NE10      29.70F
CHESTERFIELD*  FAIR      61  34  36 NW7       29.71F
PETERSBURG*    MOSUNNY   60  38  43 NE8       29.71F
HANOVER        PTSUNNY   60  37  42 NE6       29.71F
TAPPAHANNOCK*  MOSUNNY   60  30  32 N5G16     29.70F
QUINTON*       MOCLDY    58  39  48 NE6       29.69F
CHARLOTTSVILLE MOSUNNY   60  35  39 CALM      29.70F
GORDONSVILLE*  FAIR      59  34  39 N8        29.70S
ORANGE*        MOSUNNY   61  34  36 NW7       29.71F
LOUISA*        PTSUNNY   61  37  41 NE6       29.69S
BUMPASS*       MOCLDY    61  38  43 E5        29.69F
FARMVILLE*     PTSUNNY   60  39  45 NE3       29.71S
CREWE*         CLOUDY    57  37  47 CALM      29.71S
FORT PICKETT*  CLOUDY    56  41  57 NW8       29.71F
CHASE CITY*    CLOUDY    56  44  65 NW5       29.72F
CLARKSVILLE*   CLOUDY    52  43  71 NW6       29.72F
SOUTH HILL*    CLOUDY    54  43  66 N7        29.77F
LAWRENCEVILLE* CLOUDY    55  43  62 N6        29.71F
EMPORIA*       PTSUNNY   55  43  62 N5        29.73S
$$

VAZ088>098-262100-
SOUTHEAST VIRGINIA

CITY           SKY/WX    TMP DP  RH WIND       PRES   REMARKS
NORFOLK        SUNNY     56  41  57 N9        29.69S
VIRGINIA BEACH PTSUNNY   59  43  55 N8        29.69R
NORFOLK NAVAL  MOSUNNY   59  42  53 NE10      29.71S
WEST POINT*    MOSUNNY   63  35  35 NE5       29.70F
SALUDA*        FAIR      57  41  53 SE5       29.69F
NEWPORT NEWS   SUNNY     63  38  39 NE9       29.69S
LANGLEY AFB    SUNNY     58  35  42 NE9       29.69R
FORT EUSTIS    SUNNY     61  35  38 VRB6      29.68R
WILLIAMSBURG*  SUNNY     66  45  45 NE5       29.70S
HR EXEC AP*    MOCLDY    57  43  58 NE9       29.71S
FRANKLIN*      CLOUDY    56  42  59 NW3       29.70F
WAKEFIELD      MOSUNNY   60  40  47 NE12      29.70S
$$

VAZ020-022-025-037-045-262100-
WEST CENTRAL AND SOUTHWEST VIRGINIA

CITY           SKY/WX    TMP DP  RH WIND       PRES   REMARKS
STAUNTON*      MOSUNNY   57  33  39 CALM      29.73S
WAYNESBORO*    MOCLDY    53  34  48 N6        29.72S
HOT SPRINGS VA CLOUDY    42  42 100 NW5       29.70F
LYNCHBURG      CLOUDY    53  40  61 NW5       29.74F
DANVILLE       LGT RAIN  53  43  68 VRB6      29.74F
SOUTH BOSTON*  CLOUDY    53  42  67 N3        29.73F
MARTINSVILLE   CLOUDY    52  44  74 NE7       29.76F
ROANOKE        CLOUDY    51  43  74 N8        29.77S
BLACKSBURG     CLOUDY    47  42  82 NW5       29.76S
DUBLIN*        CLOUDY    49  47  91 N5        29.75S
MARION*        CLOUDY    51  47  87 W5        29.75F
HILLSVILLE*    CLOUDY    47  45  94 N5        29.72S
RICHLANDS*     CLOUDY    45  26  48 N6        29.76S
WISE*          CLOUDY    48  43  81 N9        29.78R
ABINGDON*      CLOUDY    56  48  74 NE6       29.74R
$$

MDZ021>025-VAZ099-100-262100-
SOUTHERN MARYLAND AND THE DELMARVA PENINSULA

CITY           SKY/WX    TMP DP  RH WIND       PRES   REMARKS
PATUXENT RIVER MOSUNNY   60  36  40 N8        29.69F
BAY BRIDGE APT   N/A    N/A N/A N/A NW7       29.69S
LEONARDTOWN    SUNNY     59  27  29 NE6       29.71S
DOVER          SUNNY     58  43  58 E15       29.65R
GEORGETOWN     MOSUNNY   60  37  42 E9G23     29.68S
EASTON         MOSUNNY   64  36  34 N7G23     29.72S
CAMBRIDGE      MOSUNNY   61  34  36 NW7       29.68S
SALISBURY      CLOUDY    60  33  36 N5        29.67S
OCEAN CITY     SUNNY     55  41  59 E10       29.69S
WALLOPS ISLAND MOSUNNY   58  35  42 E12       29.68S
ACCOMACK*      MOSUNNY  N/A N/A N/A NW12      29.68S
$$

NCZ012>017-030>032-262100-
NORTH CENTRAL AND EASTERN NORTH CAROLINA

CITY           SKY/WX    TMP DP  RH WIND       PRES   REMARKS
ROANOKE RAPIDS CLOUDY    52  46  82 N5        29.71F
RALEIGH        CLOUDY    52  46  80 N8        29.72F
ELIZABETH CITY CLOUDY    55  45  68 N12       29.69S
AHOSKIE*       CLOUDY    51  44  76 N5        29.71S
EDENTON*       CLOUDY    53  47  78 NE9       29.69S
CURRITUCK*     CLOUDY    55  40  58 N10G16    29.70S
KILL DEVIL HLS CLOUDY    51  41  69 N8G20     29.66S
MANTEO         CLOUDY    52  42  67 N16G24    29.67S
CAPE HATTERAS  CLOUDY    50  47  89 N10G21    29.65R
TARBORO*       CLOUDY    53  47  79 N9        29.72S
GOLDSBORO      CLOUDY    53  49  85 N7        29.68F
WASHINGTON     CLOUDY    52  47  84 N12       29.70R
GREENVILLE     CLOUDY    54  48  82 N8        29.73F
NEW BERN       CLOUDY    54  48  80 N10       29.69F
WILMINGTON     PTSUNNY   63  53  70 N10       29.66S
$$

VAZ048-262100-
ELSEWHERE

CITY           SKY/WX    TMP DP  RH WIND       PRES   REMARKS
HARRISBURG PA  MOSUNNY   62  28  27 NW10G17   29.69S
BALTIMORE      PTSUNNY   64  31  28 NW10      29.67F
ANNAPOLIS      MOSUNNY   58  35  42 SE12      29.68S
ANDREWS AFB    SUNNY     61  33  35 N7        29.67F
PHILADELPHIA   PTSUNNY   60  28  29 VRB3      29.67F
HENDERSON NC   CLOUDY    51  44  78 N6        29.72F
GREENSBORO     CLOUDY    50  44  80 NE10      29.72F
ROCKY MOUNT    CLOUDY    53  47  79 N9        29.71F
$$

VAZ100-262100-
MARINE

STATION/POSITION TIME  TEMP    WIND        PRES    WAVE   SWELL
                       AIR SEA DIR/SP/G            HT/PER HT/PER
                 (UTC) (F)     (DEG/KT/KT) (MB)    (FT/S) (FT/S)
BRANDYWINE LGT   1900   53 54   90/  9/  9 1005.5F
CAPE MAY NJ      1900   53 56  110/  9/ 13 1005.1F
LEWES DE         1900   50 53   80/ 11/ 13 1005.4F
15NM E FENWICK I 1950   47 48              1005.1F   2/12
OCEAN-CITY-INLET 1900   51 50   80/  7/ 13 1005.0F
WACHAPREAGUE VA  1900   54 55   90/  5/  9 1005.0F
THOMAS POINT MD  2000   57 54   80/  3/  4 1005.9F
GOOSES REEF MD   2000   56 56   CALM  /  2   N/A     1/ 2
COVE POINT MD    1900   53     350/  8/  9 1006.4F
SOLOMONS ISLAND  1900      56                N/A
BISHOPS HEAD MD  1900   54 57  270/ 12/ 13 1004.9F
PINEY POINT MD   1900          190/  4/  5   N/A
CAMBRIDGE MD     1900   58 57  280/  8/ 13 1004.9F
LEWISETTA VA     1900   55 57              1005.6R
RAPPAHANNOCK LGT 1900          330/ 13/ 15 1005.9F
YORK RVR RNG VA  1900   53      60/ 12/ 13 1004.9F
YORKTOWN VA      1900   55 59   40/ 12/ 15 1005.1F
JAMESTOWN VA     2000   58 64   40/  8/ 14 1004.6S
DOMINION TERM VA 1900   55      30/  8/ 13 1005.4F
KIPTOPEKE VA     1900      62  330/ 16/ 18   N/A
CHES BAY BRIDGE  1900   51 56  340/ 11/ 13 1004.9R
CAPE HENRY VA    1900   52     330/ 11/ 12 1003.9S
CHESAPEAKE LGHT  1900   51      10/ 14/ 15 1005.6S
WILLOUBY STN VA  1900   52      30/ 13/ 14 1006.0F
S CRANEY ISL VA  1900           20/ 10/ 13 1005.3S
CAPE HENRY BUOY  1958      51                N/A     4/ 5
1ST LANDING BUOY 2000                      1005.1R   2/ 4
OFFSHORE WE BUOY 1911      50                N/A     4/ 6   3/ 6
64NM E OF VA BCH 1950   53 57   10/ 19/ 21 1003.2R   6/ 6
DUCK PIER NC     1900   50 54   10/ 19/ 21 1003.6R
44056 DUCK FRF   1911      54                N/A     5/ 6
OREGON INLET NC  1900   50 54  350/ 15/ 21 1004.0R
HATTERAS NC      1900   54 63  360/ 23/ 28 1002.9R
DIAMOND SHLS NC  1950   56 76  360/ 23/ 29 1002.6R   7/ 7
CAPE LOOKOUT NC  2000   54     350/ 15/ 17 1003.8R
$$


USA.gov is the U.S. government's official web portal to all federal, state and local government web resources and services.